Location: Shenandoah County Park
(38.9356°N, 78.4524°W)
Time: 06:51:47
(UTC-04:00)

Vanguard 1 Rocket - Pass Details

Date: 09 February 2023
Orbit: 652 x 4223 km, 34.3° (Epoch: 26 March)

Event Time Altitude Azimuth Distance (km) Brightness Sun altitude
Rises 12:36:14 0° 259° (W) 4,124 10.9 36.4°
Reaches altitude 10° 12:38:28 10° 257° (WSW) 3,438 10.6 36.4°
Maximum altitude 12:47:31 72° 175° (S) 2,190 10.4 36.3°
Drops below altitude 10° 13:05:53 10° 96° (E) 6,482 11.8 35.8°
Sets 13:11:58 0° 95° (E) 7,929 12.1 35.5°
